Regional Weather Roundup
Issued by NWS

Home | Current Version | Previous Version | Text Only | Print | Product List | Glossary On
Versions: 1 2 3 4 5 6 7 8 9 10 11 12 13 14 15 16 17 18 19 20 21 22 23 24 25 26 27 28 29 30 31 32 33 34 35 36 37 38 39 40 41 42 43 44 45 46 47 48 49 50
240
ASUS44 KJAN 012010
RWRMS

MISSISSIPPI HOURLY WEATHER ROUNDUP
NATIONAL WEATHER SERVICE JACKSON MS
300 PM CDT WED APR 01 2015

NOTE: "FAIR: INDICATES FEW OR NO CLOUDS BELOW 12,000 FEET WITH NO
SIGNIFICANT WEATHER AND/OR OBSTRUCTIONS TO VISIBILITY.

MSZ001>002-007>008-010>013-018>021-025>028-034>036-012100-
NORTHWEST MISSISSIPPI

CITY           SKY/WX    TMP DP  RH WIND       PRES   REMARKS
CLARKSDALE     CLOUDY    75  66  73 S8        29.98F
CLEVELAND      FAIR      78  67  71 S12       29.97F
GREENWOOD      PTSUNNY   76  62  62 S12       29.99F
GREENVILLE     MOSUNNY   78  61  55 S20G25    29.95F
OLIVE BRANCH   PTSUNNY   79  64  61 SE9       29.97F
OXFORD         PTSUNNY   77  59  53 S7        29.99F
TUNICA         MOCLDY    77  64  65 S17       29.98S
$$

MSZ003>006-009-014>017-022>024-029>033-037>039-012100-
NORTHEAST MISSISSIPPI

CITY           SKY/WX    TMP DP  RH WIND       PRES   REMARKS
COLUMBUS AFB   MOSUNNY   80  60  50 S12       29.99F
CORINTH        MOCLDY    77  59  53 S8        30.00F
GOLDN TRIANGLE PTSUNNY   81  63  54 S12       30.00F
STARKVILLE     FAIR      79  61  53 SW9G16    30.00F
TUPELO         MOSUNNY   79  62  56 SW8       29.99F
$$

MSZ040-058-012100-
CENTRAL MISSISSIPPI

CITY           SKY/WX    TMP DP  RH WIND       PRES   REMARKS
JACKSON INTL   CLOUDY    79  61  53 S10G18    30.01F
JACKSON HAWKNS CLOUDY    79  58  48 S12       30.01F
MERIDIAN KEY   PTSUNNY   76  61  59 SW8       30.03F
MERIDIAN NAS   PTSUNNY   77  61  57 S9        30.03F
RAYMOND        FAIR      79  75  89 SW14      30.00F
VICKSBURG      CLOUDY    76  62  62 S10       30.00F
$$

MSZ059>079-012100-
SOUTH MISSISSIPPI

CITY           SKY/WX    TMP DP  RH WIND       PRES   REMARKS
BROOKHAVEN     FAIR      81  63  54 S7        30.04F
HATTIESBURG    MOSUNNY   81  55  40 S10       30.04F
MCCOMB         PTSUNNY   80  60  50 S9G16     30.03F
NATCHEZ        MOSUNNY   81  55  41 SW10      30.01F
PINE BELT      PTSUNNY   79  55  44 SW9       30.05F
$$

MSZ080>082-012100-
COASTAL MISSISSIPPI

CITY           SKY/WX    TMP DP  RH WIND       PRES   REMARKS
BAY ST LOUIS   MOSUNNY   79  61  53 MISG      30.05F
BILOXI         PTSUNNY   76  67  73 S10       30.06F
PASCAGOULA     PTSUNNY   78  63  59 S12       30.07F
GULFPORT       PTSUNNY   77  65  66 SE15      30.06F
$$



USA.gov is the U.S. government's official web portal to all federal, state and local government web resources and services.